User: anonymous   Login
Location: Unspecified
(0.0000°N, 0.0000°E)
Time: 20:51:30
(UTC+00:00)
Language:

DMSP 5D-3 F18 (USA 210) - Orbit

View from above orbital plane
View from above orbital plane
View from above satellite
View from above satellite

Ground track
Ground track

The orbit data is extracted from the following two-line orbital elements,

1 35951U 09057A   18047.22761768 0.00000050  00000-0  26764-4 0    00
2 35951  98.6123  58.1367 0010806 290.9428  69.0571 14.13137179    08
Epoch (UTC): 16 February 2018 05:27:46
Eccentricity: 0.0010806
inclination: 98.6123°
perigee height: 841 km
apogee height: 856 km
right ascension of ascending node: 58.1367°
argument of perigee: 290.9428°
revolutions per day: 14.13137179
mean anomaly at epoch: 69.0571°
orbit number at epoch: 0

The dashed part of the orbit path shows where the satellite is in the earth's shadow,  

DLR